Location: Camoruquito
(9.9001°N, 67.3564°W)
Time: 14:52:51
(UTC+00:00)

Cosmos 1867 - Pass Details

Date: 14 April 2024
Orbit: 772 x 802 km, 65.0° (Epoch: 28 May)

Event Time Altitude Azimuth Distance (km) Brightness Sun altitude
Rises 08:24:15 0° 342° (NNW) 3,294 6.8 -28.5°
Reaches altitude 10° 08:26:42 10° 344° (NNW) 2,362 6.0 -27.9°
Maximum altitude 08:32:07 70° 68° (ENE) 839 3.7 -26.6°
Drops below altitude 10° 08:37:29 10° 151° (SSE) 2,346 6.1 -25.3°
Sets 08:39:54 0° 154° (SSE) 3,270 6.9 -24.8°
